When you browse on this site, cookies collect data to enhance your experience and personalize the content and advertising you see.
Visit our Privacy Policy to learn more. By continuing to use the site, you agree to this use of cookies and data.
  • In Deutschland
  • Länderverzeichnis
  • Für 7 Tage
  • Wassertemperatur
  • Satellitenkarten
  • Wetterkarte
  • Widgets
  • user-avatar
    Anmelden

    Stündliche Wetter A'ali

    Heute, 19 Juli, Freitag

    Zeit Temperatur Niederschläge Wind Luftdruck Luftfeuchtigkeit
    00:00 +36°C° 0 mm 3 m/S 746 mmHg 47%
    01:00 +36°C° 0 mm 4 m/S 746 mmHg 47%
    02:00 +36°C° 0 mm 5 m/S 746 mmHg 47%
    03:00 +36°C° 0 mm 4 m/S 746 mmHg 46%
    04:00 +36°C° 0 mm 4 m/S 746 mmHg 49%
    05:00 +36°C° 0 mm 4 m/S 747 mmHg 51%
    06:00 +35°C° 0 mm 5 m/S 747 mmHg 54%
    07:00 +36°C° 0 mm 5 m/S 747 mmHg 56%
    08:00 +36°C° 0 mm 6 m/S 747 mmHg 57%
    09:00 +37°C° 0 mm 4 m/S 747 mmHg 59%
    10:00 +37°C° 0 mm 5 m/S 747 mmHg 58%
    11:00 +37°C° 0 mm 5 m/S 747 mmHg 57%
    12:00 +38°C° 0 mm 6 m/S 747 mmHg 56%
    13:00 +38°C° 0 mm 6 m/S 747 mmHg 56%
    14:00 +38°C° 0 mm 6 m/S 746 mmHg 56%
    15:00 +38°C° 0 mm 6 m/S 746 mmHg 56%
    16:00 +36°C° 0 mm 5 m/S 746 mmHg 57%
    17:00 +36°C° 0 mm 3 m/S 746 mmHg 59%
    18:00 +36°C° 0 mm 2 m/S 746 mmHg 60%
    19:00 +35°C° 0 mm 1 m/S 746 mmHg 62%
    20:00 +34°C° 0 mm 1 m/S 746 mmHg 64%
    21:00 +32°C° 0 mm 0 m/S 747 mmHg 66%
    22:00 +34°C° 0 mm 1 m/S 747 mmHg 63%
    23:00 +34°C° 0 mm 1 m/S 747 mmHg 59%

    Morgen, 20 Juli, Samstag

    Zeit Temperatur Niederschläge Wind Luftdruck Luftfeuchtigkeit
    00:00 +36°C° 0 mm 2 m/S 747 mmHg 56%
    01:00 +35°C° 0 mm 2 m/S 747 mmHg 57%
    02:00 +35°C° 0 mm 2 m/S 747 mmHg 59%
    03:00 +35°C° 0 mm 2 m/S 747 mmHg 61%
    04:00 +35°C° 0 mm 4 m/S 747 mmHg 63%
    05:00 +35°C° 0 mm 5 m/S 747 mmHg 65%
    06:00 +35°C° 0 mm 6 m/S 747 mmHg 67%
    07:00 +35°C° 0 mm 6 m/S 748 mmHg 64%
    08:00 +36°C° 0 mm 6 m/S 748 mmHg 62%
    09:00 +36°C° 0 mm 6 m/S 748 mmHg 59%
    10:00 +36°C° 0 mm 5 m/S 748 mmHg 59%
    11:00 +36°C° 0 mm 5 m/S 748 mmHg 58%
    12:00 +36°C° 0 mm 5 m/S 749 mmHg 57%
    13:00 +36°C° 0 mm 5 m/S 748 mmHg 57%
    14:00 +36°C° 0 mm 5 m/S 748 mmHg 57%
    15:00 +36°C° 0 mm 4 m/S 748 mmHg 58%
    16:00 +36°C° 0 mm 4 m/S 748 mmHg 59%
    17:00 +36°C° 0 mm 3 m/S 748 mmHg 61%
    18:00 +35°C° 0 mm 3 m/S 747 mmHg 62%
    19:00 +35°C° 0 mm 2 m/S 748 mmHg 63%
    20:00 +35°C° 0 mm 2 m/S 748 mmHg 64%
    21:00 +34°C° 0 mm 1 m/S 748 mmHg 64%
    22:00 +34°C° 0 mm 1 m/S 748 mmHg 65%
    23:00 +34°C° 0 mm 1 m/S 748 mmHg 66%

    übermorgen, 21 Juli, Sonntag

    Zeit Temperatur Niederschläge Wind Luftdruck Luftfeuchtigkeit
    00:00 +32°C° 0 mm 0 m/S 748 mmHg 67%
    01:00 +35°C° 0 mm 2 m/S 747 mmHg 63%
    02:00 +35°C° 0 mm 3 m/S 747 mmHg 60%
    03:00 +35°C° 0 mm 4 m/S 746 mmHg 56%
    04:00 +35°C° 0 mm 3 m/S 747 mmHg 55%
    05:00 +35°C° 0 mm 3 m/S 747 mmHg 55%
    06:00 +35°C° 0 mm 2 m/S 748 mmHg 55%
    07:00 +36°C° 0 mm 2 m/S 748 mmHg 55%
    08:00 +35°C° 0 mm 1 m/S 748 mmHg 55%
    09:00 +36°C° 0 mm 1 m/S 748 mmHg 54%
    10:00 +36°C° 0 mm 1 m/S 748 mmHg 51%
    11:00 +36°C° 0 mm 1 m/S 748 mmHg 48%
    12:00 +38°C° 0 mm 2 m/S 748 mmHg 44%
    13:00 +38°C° 0 mm 3 m/S 747 mmHg 46%
    14:00 +38°C° 0 mm 4 m/S 747 mmHg 47%
    15:00 +39°C° 0 mm 5 m/S 746 mmHg 49%
    16:00 +39°C° 0 mm 5 m/S 746 mmHg 52%
    17:00 +38°C° 0 mm 6 m/S 746 mmHg 55%
    18:00 +38°C° 0 mm 6 m/S 746 mmHg 59%
    19:00 +37°C° 0 mm 5 m/S 746 mmHg 61%
    20:00 +37°C° 0 mm 5 m/S 747 mmHg 63%
    21:00 +36°C° 0 mm 4 m/S 747 mmHg 65%
    22:00 +36°C° 0 mm 3 m/S 747 mmHg 66%
    23:00 +36°C° 0 mm 3 m/S 746 mmHg 66%

    22 Juli, Montag

    Zeit Temperatur Niederschläge Wind Luftdruck Luftfeuchtigkeit
    00:00 +36°C° 0 mm 2 m/S 746 mmHg 67%
    01:00 +36°C° 0 mm 2 m/S 746 mmHg 66%
    02:00 +36°C° 0 mm 2 m/S 746 mmHg 66%
    03:00 +36°C° 0 mm 2 m/S 745 mmHg 66%
    04:00 +35°C° 0 mm 2 m/S 746 mmHg 66%
    05:00 +35°C° 0 mm 2 m/S 746 mmHg 66%
    06:00 +35°C° 0 mm 2 m/S 747 mmHg 67%
    07:00 +36°C° 0 mm 3 m/S 747 mmHg 65%
    08:00 +36°C° 0 mm 3 m/S 747 mmHg 63%
    09:00 +36°C° 0 mm 3 m/S 747 mmHg 61%
    10:00 +37°C° 0 mm 3 m/S 747 mmHg 61%
    11:00 +37°C° 0 mm 3 m/S 747 mmHg 60%
    12:00 +37°C° 0 mm 3 m/S 746 mmHg 60%
    13:00 +37°C° 0 mm 4 m/S 746 mmHg 62%
    14:00 +37°C° 0 mm 5 m/S 745 mmHg 64%
    15:00 +37°C° 0 mm 5 m/S 745 mmHg 66%
    16:00 +38°C° 0 mm 6 m/S 745 mmHg 65%
    17:00 +38°C° 0 mm 6 m/S 745 mmHg 64%
    18:00 +38°C° 0 mm 6 m/S 745 mmHg 63%
    19:00 +38°C° 0 mm 6 m/S 745 mmHg 65%
    20:00 +36°C° 0 mm 7 m/S 745 mmHg 66%
    21:00 +36°C° 0 mm 7 m/S 746 mmHg 67%
    22:00 +36°C° 0 mm 6 m/S 745 mmHg 69%
    23:00 +36°C° 0 mm 4 m/S 745 mmHg 70%

    23 Juli, Dienstag

    Zeit Temperatur Niederschläge Wind Luftdruck Luftfeuchtigkeit
    00:00 +35°C° 0 mm 2 m/S 745 mmHg 71%
    01:00 +35°C° 0 mm 2 m/S 744 mmHg 70%
    02:00 +35°C° 0 mm 2 m/S 744 mmHg 69%
    03:00 +35°C° 0 mm 2 m/S 744 mmHg 69%
    04:00 +35°C° 0 mm 2 m/S 745 mmHg 69%
    05:00 +35°C° 0 mm 2 m/S 745 mmHg 69%
    06:00 +35°C° 0 mm 2 m/S 745 mmHg 68%
    07:00 +36°C° 0 mm 2 m/S 746 mmHg 68%
    08:00 +35°C° 0 mm 1 m/S 746 mmHg 67%
    09:00 +35°C° 0 mm 1 m/S 746 mmHg 66%
    10:00 +36°C° 0 mm 2 m/S 746 mmHg 63%
    11:00 +37°C° 0 mm 2 m/S 746 mmHg 61%
    12:00 +37°C° 0 mm 2 m/S 746 mmHg 58%
    13:00 +37°C° 0 mm 3 m/S 745 mmHg 61%
    14:00 +37°C° 0 mm 4 m/S 745 mmHg 64%
    15:00 +37°C° 0 mm 5 m/S 745 mmHg 67%
    16:00 +37°C° 0 mm 5 m/S 744 mmHg 67%
    17:00 +37°C° 0 mm 5 m/S 744 mmHg 68%
    18:00 +37°C° 0 mm 5 m/S 744 mmHg 68%
    19:00 +37°C° 0 mm 5 m/S 745 mmHg 67%
    20:00 +37°C° 0 mm 4 m/S 745 mmHg 66%
    21:00 +37°C° 0 mm 4 m/S 745 mmHg 64%
    22:00 +36°C° 0 mm 4 m/S 745 mmHg 67%
    23:00 +36°C° 0 mm 4 m/S 745 mmHg 69%

    24 Juli, Mittwoch

    Zeit Temperatur Niederschläge Wind Luftdruck Luftfeuchtigkeit
    00:00 +35°C° 0 mm 4 m/S 744 mmHg 72%
    01:00 +35°C° 0 mm 4 m/S 744 mmHg 72%
    02:00 +35°C° 0 mm 4 m/S 744 mmHg 72%
    03:00 +35°C° 0 mm 4 m/S 744 mmHg 73%
    04:00 +35°C° 0 mm 3 m/S 745 mmHg 73%
    05:00 +35°C° 0 mm 3 m/S 745 mmHg 73%
    06:00 +35°C° 0 mm 3 m/S 746 mmHg 73%
    07:00 +35°C° 0 mm 2 m/S 746 mmHg 71%
    08:00 +35°C° 0 mm 2 m/S 746 mmHg 69%
    09:00 +36°C° 0 mm 2 m/S 747 mmHg 67%
    10:00 +36°C° 0 mm 2 m/S 746 mmHg 65%
    11:00 +37°C° 0 mm 3 m/S 746 mmHg 62%
    12:00 +37°C° 0 mm 3 m/S 746 mmHg 59%
    13:00 +37°C° 0 mm 3 m/S 745 mmHg 62%
    14:00 +37°C° 0 mm 4 m/S 745 mmHg 66%
    15:00 +37°C° 0 mm 4 m/S 745 mmHg 69%
    16:00 +37°C° 0 mm 4 m/S 745 mmHg 68%
    17:00 +37°C° 0 mm 4 m/S 745 mmHg 68%
    18:00 +37°C° 0 mm 4 m/S 745 mmHg 67%
    19:00 +37°C° 0 mm 4 m/S 745 mmHg 66%
    20:00 +37°C° 0 mm 4 m/S 745 mmHg 65%
    21:00 +37°C° 0 mm 3 m/S 746 mmHg 64%
    22:00 +36°C° 0 mm 4 m/S 745 mmHg 69%
    23:00 +35°C° 0 mm 5 m/S 745 mmHg 75%
    Mehr zeigen